Погода в Пунта-Аренасе

Чили     53°09′07″S   70°53′52″W
темп.,
°C
ветер,
м/с
пор.,
м/с
влажн.,
%
обл.,
%
осадки,
мм/ч
давл.,
гПа
погр.,
м
16 октября, сб
сб1600:00+1з12238563 1.3 9881962
03:00−1зюз10227621 1.5 9951966
06:00−1з8198049 0.1 9991855
09:00+1з9217116 0.1 10012134
12:00+4з10217692 0.8 10022307
15:00+5зюз9196812 1.2 10052070
18:00+4зюз817635 0.1 10081932
21:00+1зюз6147543 0.1 10111295
17 октября, вс
вс1700:00+3з6157883 0.0 10121342
03:00+4зсз61581100 0.0 10111307
06:00+4сз4148299 0.0 10111200
09:00+5сз3128593 0.0 1010820
12:00+7сз51277100 0.0 1009967
15:00+7сз91874100 0.0 10051075
18:00+7сз91981100 0.1 10031421
21:00+7сз81781100 0.4 10011195
18 октября, пн
пн1800:00+7сз71784100 0.4 9991522
03:00+8з7198090 0.4 9981523
06:00+7з9197528 0.0 10001296
09:00+8з818668 0.0 10021340
12:00+9з9175710 0.0 10041603
15:00+10з917546 0.1 10061697
18:00+8з817608 0.0 10081551
21:00+6з7136949 0.1 10101214
19 октября, вт
вт1900:00+5з487312 0.0 1011482
03:00+3сз2783100 0.0 1009333
06:00+6с51372100 0.0 1006725
09:00+6с41380100 0.3 1005587
12:00+12ссз61762100 0.1 10031280
15:00+15сз82161100 0.1 10011610
18:00+14сз72165100 0.0 10001878
21:00+13зсз81962100 0.0 9991880
20 октября, ср
ср2000:00+13зсз81959100 0.0 9961665
03:00+13ссз72257100 0.0 9921968
06:00+9зсз71976100 0.4 9941545
09:00+5з102060100 0.4 9971570
12:00+8зсз715457 0.0 10001980
15:00+9зсз916447 0.0 10001946
18:00+9сз71846100 0.0 10001806
21:00+6сз10225330 0.0 9991826